GFSNE_925_thetae_333.txt.gz
Theta_e
306 306 306 306 305 305 305 305 305 306 306 305 305 304 302 301 302 301 300 299 299 302 302 302 302 302 302 303 303 304 304 304 304 303 303 303 303 304
306 306 305 306 305 305 305 305 305 305 306 305 304 304 302 301 301 301 300 299 298 301 302 301 301 301 301 302 303 303 303 303 303 302 302 302 302 302
306 306 305 305 305 305 305 305 305 305 305 304 304 304 303 303 302 301 300 299 300 300 301 301 301 301 301 302 302 303 302 303 302 302 301 301 301 301
306 306 306 306 305 305 305 305 305 304 304 304 304 304 304 304 304 302 300 300 300 300 301 301 301 301 302 301 301 301 302 302 302 302 300 300 300 300
306 306 306 306 306 306 305 305 305 305 304 304 304 304 303 303 303 303 301 300 300 300 300 300 300 301 301 301 301 300 301 301 301 301 299 299 299 298
306 306 306 306 306 306 306 306 305 305 304 304 304 303 303 303 303 302 301 300 299 300 300 300 299 299 300 301 301 300 301 301 301 300 298 298 297 297
307 307 307 306 306 306 306 306 306 306 305 305 304 304 304 304 303 302 301 300 300 299 300 300 299 298 298 299 300 300 300 301 301 300 298 297 296 297
307 307 307 307 306 306 305 305 305 305 306 305 304 304 304 304 303 302 301 300 299 299 299 299 299 298 298 298 298 299 299 300 300 299 297 296 297 297
307 307 308 307 306 305 305 305 305 306 306 306 305 304 304 303 303 302 301 299 299 299 299 298 298 298 297 297 297 297 298 299 299 297 295 296 296 295
307 308 308 309 309 307 306 305 304 304 304 305 306 306 306 305 304 303 301 300 298 298 298 297 296 297 297 297 297 296 297 297 297 296 296 296 295 294
308 308 308 308 307 307 306 305 304 304 305 304 303 303 303 303 303 304 301 298 297 295 295 296 294 296 297 297 297 297 297 297 297 296 296 295 294 293
307 307 307 306 305 304 304 305 305 305 306 306 304 304 304 303 303 303 303 299 297 295 295 294 294 295 296 296 297 297 296 295 296 296 295 294 293 292
306 306 307 306 305 304 303 304 305 305 306 306 305 305 304 303 302 303 302 301 299 298 297 296 295 296 296 295 294 295 295 293 294 295 294 293 292 291
305 306 306 306 304 302 303 304 304 304 304 303 303 303 304 303 303 302 301 301 300 299 299 296 297 296 296 296 294 293 292 293 294 294 292 291 291 290
303 303 303 303 303 302 303 302 301 300 300 300 299 299 300 300 302 302 301 301 300 299 298 298 297 297 296 295 294 292 292 292 292 291 291 291 291 291
301 301 299 300 301 301 300 299 298 297 297 297 297 297 296 296 297 300 300 300 298 297 298 297 297 297 296 295 296 294 292 292 291 291 290 291 291 291
296 296 298 299 298 298 297 296 295 294 294 294 294 294 294 295 296 297 299 298 296 296 296 296 297 296 296 295 295 296 293 292 291 291 291 291 291 291
295 296 297 297 296 295 294 294 293 293 292 292 292 292 293 294 295 296 297 297 295 295 295 294 294 293 292 293 293 294 295 293 292 292 291 291 291 292
295 295 295 294 294 293 293 293 292 291 291 291 292 292 293 293 293 294 296 296 294 294 295 294 292 291 291 292 293 293 294 294 293 292 291 291 291 291
295 294 293 293 293 292 292 291 291 290 291 291 291 292 292 292 292 292 294 295 294 294 293 292 291 291 292 294 294 294 293 294 293 292 291 291 291 291
293 293 292 292 291 291 290 290 290 290 290 290 289 290 290 291 292 293 291 293 295 294 292 292 293 294 292 293 293 292 293 293 293 292 291 291 290 289
293 292 291 290 290 289 290 290 290 290 289 289 289 289 289 289 289 292 291 291 292 294 293 293 293 292 292 292 294 292 291 291 291 291 291 291 291 289
292 291 290 289 289 289 289 290 289 289 289 288 288 288 289 289 289 289 289 291 290 292 294 293 292 291 291 292 293 293 291 289 288 289 289 290 290 290

GFSNE_925_thetae_336.txt.gz
Theta_e
307 307 307 306 306 306 305 305 304 304 303 304 304 305 305 305 303 302 302 301 301 302 303 304 304 304 304 304 305 304 305 305 306 306 305 305 304 304
307 307 306 306 306 306 306 306 305 304 304 304 304 304 304 304 303 302 301 301 301 300 301 301 303 304 304 304 303 303 304 304 305 305 305 304 303 303
306 306 306 306 306 306 306 306 305 305 304 304 304 304 304 304 304 303 301 301 300 300 301 302 302 303 303 303 303 303 303 304 304 304 304 304 303 303
307 307 306 306 306 306 306 305 305 305 304 304 304 304 304 304 304 304 303 303 301 301 300 302 303 303 303 303 303 303 303 303 303 303 303 303 303 302
307 307 307 306 306 306 306 305 305 305 305 304 304 304 304 303 304 303 303 303 303 301 301 301 301 302 303 303 302 302 302 302 302 302 302 303 302 301
307 307 307 307 307 307 306 306 306 305 305 304 304 303 303 303 303 303 303 303 302 302 301 301 301 301 302 302 301 302 302 302 302 302 302 302 301 300
307 307 307 307 307 307 307 306 306 306 305 304 303 303 303 303 303 304 303 302 302 302 301 300 300 300 300 300 300 300 300 299 302 302 302 301 300 299
304 305 306 306 307 307 307 306 307 307 305 305 304 303 303 303 304 303 303 301 301 301 301 300 301 300 301 300 299 298 299 300 300 301 301 301 300 298
305 306 306 307 308 308 308 307 306 306 306 306 306 305 304 304 303 303 303 302 302 301 300 299 299 299 299 299 299 299 299 299 300 300 300 300 299 297
306 307 308 308 308 308 308 307 306 305 304 304 304 305 305 306 306 306 304 303 302 301 300 298 299 298 298 298 298 298 298 298 298 298 300 299 297 297
306 307 307 307 307 306 305 304 304 305 305 305 305 305 304 304 304 305 304 302 299 298 299 297 297 296 296 296 297 297 298 298 297 298 298 298 297 296
305 305 306 307 306 305 304 304 303 303 304 305 305 305 304 305 304 303 302 303 300 297 299 296 296 295 294 296 297 297 298 298 298 298 298 297 297 295
303 305 306 307 305 304 303 303 303 304 303 303 303 302 301 301 301 302 302 302 301 299 300 298 295 295 295 296 296 297 297 297 296 296 297 296 296 294
303 303 303 303 302 302 302 303 303 302 300 299 299 298 298 298 298 297 298 301 301 301 301 298 296 296 295 295 294 295 295 294 294 294 295 296 294 293
303 303 302 299 299 301 301 301 299 297 296 296 296 296 295 295 294 294 294 297 299 301 300 299 298 297 296 295 295 293 292 294 293 293 294 294 292 292
299 297 295 298 299 298 297 296 295 294 293 293 293 293 292 292 292 293 294 296 297 298 297 299 298 297 296 296 295 294 293 292 292 294 293 292 291 291
296 295 296 297 296 295 294 294 293 292 292 292 292 292 292 292 292 293 293 294 296 296 296 297 297 297 296 296 295 295 293 292 292 292 291 291 291 291
296 295 296 295 294 293 293 293 292 291 291 291 291 291 292 292 292 292 293 293 294 295 296 295 295 295 294 294 295 294 294 293 292 291 291 290 291 291
295 295 295 294 293 293 292 291 290 290 290 290 290 290 291 291 290 292 292 292 292 294 294 294 294 292 292 293 293 293 293 294 292 291 291 291 291 291
295 294 293 293 292 292 291 290 290 290 290 290 290 289 289 289 290 289 291 291 291 291 293 293 292 291 292 293 292 293 293 293 293 292 291 291 290 290
293 293 293 292 291 290 290 289 290 290 290 289 289 289 289 289 289 289 289 290 290 290 291 293 293 293 292 291 292 293 294 293 293 293 291 291 289 289
293 293 292 291 290 290 289 289 289 289 289 289 289 288 288 288 288 288 288 288 288 290 290 290 293 292 292 291 292 292 291 293 292 292 292 292 290 287
293 292 291 291 290 289 289 288 288 289 289 289 288 288 288 288 288 288 288 288 288 288 289 289 292 292 291 291 292 292 291 290 289 289 290 291 291 290

GFSNE_925_thetae_342.txt.gz
Theta_e
309 308 308 307 307 306 305 304 303 303 304 304 304 305 305 305 305 304 304 304 304 304 303 302 303 306 306 306 306 307 307 307 307 308 307 308 308 308
308 307 307 307 307 306 306 305 304 303 303 304 304 304 305 305 305 304 304 304 304 303 303 303 302 304 305 305 306 306 306 307 307 307 307 307 307 308
307 307 307 307 306 306 306 305 305 303 302 303 304 304 304 304 304 304 304 304 304 304 303 303 303 303 304 304 305 305 306 306 307 307 306 306 306 306
307 307 306 306 306 306 306 305 305 305 303 303 303 304 304 304 304 304 304 304 304 304 303 303 303 303 304 304 304 304 304 304 305 305 306 307 306 306
307 306 306 306 306 306 306 305 305 305 304 302 302 303 303 304 303 304 304 304 304 304 304 304 304 303 303 303 303 303 303 303 304 305 305 305 306 304
307 306 306 305 305 304 305 305 306 306 305 304 302 302 303 304 304 303 303 303 304 304 304 304 304 304 304 304 304 303 303 302 302 304 304 304 305 304
308 307 306 305 305 306 307 307 308 308 307 305 302 302 302 304 304 304 302 303 304 304 304 304 304 304 303 302 302 302 302 301 301 302 303 303 302 303
308 306 305 306 306 307 307 307 307 309 309 307 305 303 304 305 304 304 303 302 301 303 303 304 303 303 302 301 302 301 301 301 302 301 301 301 301 301
306 305 305 306 306 306 306 307 306 305 304 305 304 304 304 304 304 304 303 301 302 303 303 302 301 301 301 301 301 300 301 301 301 301 301 301 300 301
305 304 305 305 305 306 306 306 305 305 304 303 303 304 304 305 305 305 304 303 303 302 301 300 300 300 300 300 300 300 300 299 299 300 300 300 300 300
303 303 303 305 306 305 305 304 304 303 302 303 303 302 301 300 300 299 299 298 298 298 298 299 299 299 299 299 299 300 299 298 298 299 299 300 299 299
303 303 303 303 304 303 304 303 303 301 302 302 301 299 297 297 296 296 294 293 293 294 297 296 297 297 297 299 299 299 299 298 297 298 299 299 298 299
303 303 303 302 302 301 299 301 302 302 300 298 296 295 294 293 292 292 292 292 292 292 293 294 295 296 296 297 297 297 297 298 297 298 298 299 297 298
303 302 301 300 298 297 300 301 301 299 296 294 292 291 291 291 291 291 291 291 292 292 292 292 294 296 296 296 295 296 297 297 296 297 297 298 297 297
301 300 299 296 296 298 298 297 295 294 293 291 291 290 290 290 290 290 290 290 290 291 291 291 294 295 296 296 296 296 295 295 296 295 295 295 295 296
299 298 296 296 297 296 295 294 293 292 292 291 290 289 289 289 289 289 290 289 289 290 290 291 292 293 295 295 295 295 295 294 294 295 294 293 294 294
298 296 296 295 294 293 293 292 292 292 291 290 289 289 289 289 288 289 289 288 289 290 290 290 290 292 293 293 294 295 295 294 294 293 292 293 293 294
296 296 295 294 293 293 292 292 291 290 290 289 289 289 289 289 288 288 288 288 287 287 290 289 288 290 292 293 293 294 295 294 293 293 292 291 292 293
295 294 294 294 293 292 292 291 290 290 289 289 289 289 289 288 288 288 287 287 287 287 288 287 287 288 291 292 292 293 294 294 293 292 292 291 290 291
295 294 294 293 292 292 291 290 290 289 288 288 289 288 288 288 288 287 287 287 288 288 287 286 286 287 288 290 291 292 292 292 292 291 291 291 291 291
295 295 295 293 292 292 291 290 289 288 288 288 288 288 288 288 287 286 286 287 287 286 285 286 286 287 287 289 291 292 292 292 292 292 291 290 289 290
295 295 295 293 292 292 291 290 289 288 288 287 287 287 288 287 287 287 287 287 286 286 285 286 286 286 286 289 290 291 291 292 292 292 292 292 290 289
294 294 294 293 292 291 290 290 289 288 288 287 287 287 287 287 287 287 287 286 286 286 286 286 286 286 286 287 289 290 291 291 291 290 291 291 291 292

GFSNE_925_thetae_345.txt.gz
Theta_e
309 308 308 307 307 306 305 304 302 300 303 304 304 305 305 305 305 305 305 305 304 304 304 304 304 306 307 306 307 307 307 308 308 309 309 310 310 310
308 307 307 307 306 306 305 305 303 302 301 304 304 304 305 305 305 305 305 305 305 304 304 304 303 305 306 306 306 306 306 306 307 308 309 309 309 309
307 307 307 306 306 306 305 305 304 303 300 302 303 304 304 305 305 305 305 304 304 304 304 304 303 303 304 305 306 306 306 306 306 306 307 308 309 309
307 307 307 306 306 305 305 305 304 304 302 301 302 303 304 305 305 304 304 304 304 304 304 304 304 304 304 304 304 304 305 305 305 306 305 306 307 307
307 307 307 306 306 305 304 304 304 305 303 301 301 303 304 305 305 305 304 303 304 304 304 304 304 304 304 304 304 304 303 303 303 304 305 305 305 307
307 307 307 306 305 305 305 306 307 307 307 305 303 304 304 305 305 304 304 303 303 304 304 304 304 304 304 304 304 304 303 303 303 304 304 303 304 305
308 307 307 306 305 306 306 307 307 308 308 307 304 303 303 304 304 304 302 303 304 303 303 303 302 302 302 301 302 303 301 302 302 302 302 302 303 303
308 307 306 305 305 306 306 306 307 308 307 305 304 302 302 303 303 303 303 300 301 302 303 302 302 301 301 299 300 300 301 301 302 302 302 302 302 302
307 306 305 305 305 305 305 306 306 305 304 304 303 302 303 304 303 302 303 302 301 301 300 300 299 299 299 299 300 299 299 301 301 301 301 301 301 302
306 305 304 304 304 305 306 305 305 305 303 301 302 303 303 301 300 300 298 296 295 295 295 295 296 297 297 296 296 297 298 300 300 299 299 300 300 301
305 303 303 303 305 305 304 303 303 302 301 301 302 301 300 298 297 295 294 292 291 292 293 294 294 293 294 295 296 298 299 299 298 298 298 298 300 301
304 303 303 303 303 303 303 302 300 299 301 300 299 298 295 294 293 291 291 291 290 290 293 291 292 292 293 294 296 295 296 297 297 297 297 298 299 301
304 303 302 302 302 301 299 299 300 302 300 297 295 293 291 291 290 290 290 291 290 290 291 291 291 291 292 295 295 295 296 296 296 297 297 298 298 299
304 303 302 301 300 297 298 300 301 300 296 294 292 291 290 289 290 289 289 290 289 289 289 290 291 291 293 294 295 294 295 296 295 296 296 296 297 298
304 303 301 299 296 297 298 297 295 294 292 292 291 290 289 289 289 288 289 289 288 288 289 290 290 290 291 293 294 293 294 295 294 295 295 294 295 295
303 301 299 296 296 296 295 294 293 292 292 291 290 289 289 289 288 288 288 288 287 288 288 289 289 288 289 291 293 293 294 294 294 294 294 294 293 293
301 299 297 295 295 294 293 292 292 292 291 290 289 289 289 289 288 288 288 287 286 287 287 288 287 286 287 290 292 293 293 294 294 294 293 292 292 293
298 297 296 295 294 293 293 292 291 291 291 290 289 289 288 288 288 288 287 287 287 287 287 287 287 286 287 289 291 293 293 293 293 293 293 291 291 292
297 296 295 294 294 293 292 292 291 291 290 289 288 288 288 288 288 287 286 286 287 287 287 286 285 286 287 287 288 291 292 292 292 292 292 291 291 292
296 295 294 294 293 292 292 292 291 290 289 288 288 288 287 287 287 286 286 285 286 287 286 285 285 286 286 287 287 287 291 291 292 291 291 291 291 291
296 295 295 294 294 293 292 291 291 290 289 288 287 287 287 287 287 287 286 286 287 286 286 286 285 286 286 286 287 289 290 291 291 292 291 291 290 290
297 295 294 295 294 293 292 291 290 290 289 288 287 287 287 287 287 287 286 286 287 286 286 286 286 286 286 286 286 287 289 290 290 291 291 291 290 290
296 294 294 294 293 293 292 291 290 289 289 288 287 287 287 286 286 286 286 286 286 286 286 285 285 285 286 286 286 286 287 289 290 290 290 291 291 291